NUSAT-8 (MARIE) (45018 NORAD) Tracking and Keplerian Element Data

This shows tracking and keplerian element data for the satellite.

Feedback or suggestion? Click here.




ElementValue
Catalog45018
NameNUSAT-8 (MARIE)
Epoch Orbit580
Epoch Day53.16770873
Epoch Year2020
RAAN121.4221
Inclination97.333
Eccentricity0.0013684
Argument of Perigee131.8743
Mean Anonmoly228.3666
Mean Motion15.27092891
Decay Rate1.188E-05
L11 45018U 20003C 20053.16770873 .00001188 00000-0 47356-4 0 9999
L22 45018 97.3330 121.4221 0013684 131.8743 228.3666 15.27092891 5807

Live tracking and technical data element details for NUSAT-8 (MARIE) (NORAD 45018). NUSAT-8 (MARIE) can be tracked NOW for your location showing map with azimuth and elevation plus other details from your city location.

Track the satellite on the map from your city or location and see movement details for azimuth, elevation, latitude, longitude, range, height, and movement on the map or in text.







IsCatalogInMostPopularTable: catalog: 45018, numindb: 14
Update: records affected: 1



GetName: 45018 NUSAT-8 (MARIE)

Hit Count: updated at: Mon, 24 Feb 2020 19:09:24 GMT